TimeCDT,TemperatureF,Dew PointF,Humidity,Sea Level PressureIn,VisibilityMPH,Wind Direction,Wind SpeedMPH,Gust SpeedMPH,PrecipitationIn,Events,Conditions,WindDirDegrees,DateUTC
12:53 AM,77.0,63.0,62,29.89,10.0,South,15.0,-,N/A,,Scattered Clouds,170,2013-06-21 05:53:00
1:53 AM,77.0,64.0,64,29.87,10.0,South,16.1,24.2,N/A,,Mostly Cloudy,170,2013-06-21 06:53:00
2:53 AM,75.9,64.0,67,29.84,10.0,South,16.1,25.3,N/A,,Overcast,180,2013-06-21 07:53:00
3:53 AM,75.0,64.0,69,29.84,10.0,South,12.7,-,N/A,,Partly Cloudy,190,2013-06-21 08:53:00
4:53 AM,73.9,64.9,73,29.85,10.0,South,12.7,-,N/A,,Partly Cloudy,190,2013-06-21 09:53:00
5:53 AM,75.0,66.0,73,29.85,10.0,SSW,15.0,21.9,N/A,,Mostly Cloudy,210,2013-06-21 10:53:00
6:18 AM,69.8,60.8,73,29.94,10.0,North,32.2,41.4,N/A,,Mostly Cloudy,360,2013-06-21 11:18:00
6:32 AM,66.2,59.0,78,29.99,10.0,North,24.2,31.1,0.00,Rain-Thunderstorm,Light Rain,350,2013-06-21 11:32:00
6:41 AM,64.4,60.8,88,30.00,6.0,NNW,11.5,31.1,0.03,Rain-Thunderstorm,Thunderstorms and Rain,340,2013-06-21 11:41:00
6:49 AM,64.4,60.8,88,29.98,1.8,NNE,17.3,24.2,0.18,Rain-Thunderstorm,Heavy Thunderstorms and Rain,20,2013-06-21 11:49:00
6:53 AM,64.0,61.0,90,29.94,1.5,NNE,15.0,24.2,0.21,Rain-Thunderstorm,Heavy Thunderstorms and Rain,20,2013-06-21 11:53:00
7:00 AM,64.4,60.8,88,30.00,3.0,North,15.0,-,0.06,Rain-Thunderstorm,Heavy Thunderstorms and Rain,360,2013-06-21 12:00:00
7:10 AM,62.6,62.6,100,30.00,1.8,North,9.2,-,0.29,Rain-Thunderstorm,Heavy Thunderstorms and Rain,10,2013-06-21 12:10:00
7:16 AM,62.6,60.8,94,30.02,2.0,North,9.2,-,0.32,Rain-Thunderstorm,Thunderstorms and Rain,360,2013-06-21 12:16:00
7:32 AM,64.4,62.6,94,30.00,4.0,NNE,5.8,-,0.39,Rain-Thunderstorm,Light Thunderstorms and Rain,30,2013-06-21 12:32:00
7:53 AM,64.0,62.1,93,29.95,9.0,SSE,5.8,-,0.41,Rain-Thunderstorm,Light Thunderstorms and Rain,160,2013-06-21 12:53:00
8:02 AM,64.4,62.6,94,29.99,1.8,SSE,3.5,-,0.10,Rain-Thunderstorm,Heavy Thunderstorms and Rain,160,2013-06-21 13:02:00
8:10 AM,64.4,60.8,88,29.99,3.0,SSW,9.2,-,0.13,Rain-Thunderstorm,Thunderstorms and Rain,200,2013-06-21 13:10:00
8:29 AM,64.4,62.6,94,29.99,10.0,SE,9.2,-,0.13,Rain,Light Rain,140,2013-06-21 13:29:00
8:53 AM,64.0,62.1,93,29.96,10.0,South,6.9,-,0.13,,Mostly Cloudy,180,2013-06-21 13:53:00
9:04 AM,64.4,62.6,94,30.03,10.0,SW,4.6,-,N/A,Thunderstorm,Overcast,220,2013-06-21 14:04:00
9:53 AM,64.9,62.1,90,29.93,10.0,South,19.6,28.8,0.01,Rain-Thunderstorm,Light Rain,170,2013-06-21 14:53:00
10:05 AM,66.2,62.6,88,29.96,10.0,South,20.7,-,0.00,Rain,Light Rain,170,2013-06-21 15:05:00
10:53 AM,66.9,63.0,87,29.96,10.0,SE,17.3,23.0,0.02,,Mostly Cloudy,140,2013-06-21 15:53:00
11:53 AM,71.1,64.9,81,29.93,10.0,SSE,18.4,27.6,N/A,,Clear,150,2013-06-21 16:53:00
12:53 PM,75.9,64.0,67,29.93,10.0,SSE,21.9,31.1,N/A,,Clear,160,2013-06-21 17:53:00
1:53 PM,78.1,66.0,66,29.91,10.0,SSE,23.0,33.4,N/A,,Partly Cloudy,160,2013-06-21 18:53:00
2:53 PM,82.0,66.9,60,29.88,10.0,South,18.4,25.3,N/A,,Scattered Clouds,170,2013-06-21 19:53:00
3:53 PM,82.0,68.0,62,29.83,10.0,SSE,21.9,27.6,N/A,,Clear,160,2013-06-21 20:53:00
4:53 PM,84.0,69.1,61,29.83,10.0,South,16.1,24.2,N/A,,Clear,170,2013-06-21 21:53:00
5:53 PM,81.0,69.1,67,29.86,10.0,SE,9.2,-,N/A,,Scattered Clouds,140,2013-06-21 22:53:00
6:53 PM,82.9,71.1,67,29.88,10.0,SSE,5.8,-,N/A,,Partly Cloudy,160,2013-06-21 23:53:00
7:53 PM,80.1,73.0,79,29.93,10.0,NNE,4.6,-,N/A,,Partly Cloudy,20,2013-06-22 00:53:00
8:53 PM,78.1,71.1,79,29.90,10.0,East,11.5,-,N/A,,Clear,100,2013-06-22 01:53:00
9:53 PM,75.9,70.0,82,29.91,10.0,ENE,6.9,-,N/A,,Scattered Clouds,70,2013-06-22 02:53:00
10:53 PM,75.9,70.0,82,29.91,10.0,ESE,16.1,-,N/A,,Scattered Clouds,120,2013-06-22 03:53:00
11:53 PM,75.9,70.0,82,29.87,10.0,ESE,17.3,-,N/A,,Overcast,110,2013-06-22 04:53:00